Regional Weather Roundup
Issued by NWS

Home | Current Version | Previous Version | Text Only | Print | Product List | Glossary Off
Versions: 1 2 3 4 5 6 7 8 9 10 11 12 13 14 15 16 17 18 19 20 21 22 23 24 25 26 27 28 29 30 31 32 33 34 35 36 37 38 39 40 41 42 43 44 45 46 47 48 49 50

000
ASUS43 KLSX 302207
RWRMO

WEATHER SUMMARY FOR MISSOURI
NATIONAL WEATHER SERVICE SPRINGFIELD MO
400 PM CST FRI JAN 30 2015

NOTE: "FAIR" INDICATES FEW OR NO CLOUDS BELOW 12,000 FEET WITH NO
       SIGNIFICANT WEATHER AND/OR OBSTRUCTIONS TO VISIBILITY.
       CURRENT SKY AND/OR WEATHER CONDITIONS ARE NOT AVAILABLE FOR
       CHILLICOTHE AND FARMINGTON.

MOZ001>031-035>038-043-044-053-054-302300-
...NORTHERN AND WESTERN MISSOURI...

CITY           SKY/WX    TMP DP  RH WIND       PRES   REMARKS
KANSAS CTY INT CLOUDY    38  17  42 CALM      30.42F
KANSAS C DTWN  PTSUNNY   42  16  34 VRB3      30.43F
LEE`S SUMMIT   MOSUNNY   41  18  39 VRB3      30.43F
ST JOSEPH      PTSUNNY   37  20  50 SW6       30.44F
CHILLICOTHE      N/A     38  17  42 SW5       30.45F
KIRKSVILLE     MOSUNNY   35  18  49 SW5       30.44F

$$
MOZ066>068-077>081-088>096-101>105-302300-
...SOUTHWEST MISSOURI...

CITY           SKY/WX    TMP DP  RH WIND       PRES   REMARKS
SPRINGFIELD    MOSUNNY   47  13  25 CALM      30.42S
JOPLIN         SUNNY     47  21  35 CALM      30.43F

$$
MOZ032>034-039>042-045>050-055>058-069>072-302300-
...CENTRAL MISSOURI...

CITY           SKY/WX    TMP DP  RH WIND       PRES   REMARKS
COLUMBIA       MOSUNNY   38  17  42 VRB3      30.45F
JEFFERSON CITY MOSUNNY   41  15  35 CALM      30.47F
ROLLA          SUNNY     41  19  41 N3        30.42F
SEDALIA        PTSUNNY   40  18  41 CALM      30.45F
WHITEMAN AFB   CLOUDY    39  18  42 VRB1      30.45S
WARRENSBURG    PTSUNNY   37  18  44 CALM      30.45S
OSAGE BEACH    MOSUNNY   43  18  36 W3        30.45S

$$
MOZ051-052-059>065-302300-
...EAST CENTRAL MISSOURI...

CITY           SKY/WX    TMP DP  RH WIND       PRES   REMARKS
ST LOUIS INTL  MOSUNNY   39  16  39 CALM      30.47F
SPIRIT OF STL  MOSUNNY   39  15  37 CALM      30.47F
ST CHARLES     SUNNY     37  19  48 CALM      30.47F

$$
MOZ072>076-082>087-097>100-106>115-302300-
...SOUTH CENTRAL AND SOUTHEAST MISSOURI...

CITY           SKY/WX    TMP DP  RH WIND       PRES   REMARKS
CAPE GIRARDEAU SUNNY     43  21  41 CALM      30.47S
FARMINGTON     SUNNY     41  18  38 N3        30.48S
POPLAR BLUFF   SUNNY     43  22  43 CALM      30.46S
WEST PLAINS    SUNNY     47  14  26 CALM      30.43S

$$


USA.gov is the U.S. government's official web portal to all federal, state and local government web resources and services.